Time,TemperatureF,DewpointF,PressureIn,WindDirection,WindDirectionDegrees,WindSpeedMPH,WindSpeedGustMPH,Humidity,HourlyPrecipIn,Conditions,Clouds,dailyrainin,SoftwareType,DateUTC
2013-01-31 00:11:00,40.5,40.0,30.15,NE,45,0.0,-999.0,98,-99.99,,,0.00,Acu-Link.com,2013-01-31 08:11:00,
2013-01-31 00:26:00,40.3,39.8,30.16,NE,45,0.0,-999.0,98,-99.99,,,0.00,Acu-Link.com,2013-01-31 08:26:00,
2013-01-31 00:41:00,40.3,39.8,30.15,NE,45,0.0,-999.0,98,-99.99,,,0.00,Acu-Link.com,2013-01-31 08:41:00,
2013-01-31 00:57:00,40.3,39.8,30.15,NE,45,0.0,-999.0,98,-99.99,,,0.00,Acu-Link.com,2013-01-31 08:57:00,
2013-01-31 01:15:00,40.3,39.8,30.14,NE,45,0.0,-999.0,98,-99.99,,,0.00,Acu-Link.com,2013-01-31 09:15:00,
2013-01-31 01:30:00,40.3,39.8,30.15,WSW,247,0.0,-999.0,98,-99.99,,,0.00,Acu-Link.com,2013-01-31 09:30:00,
2013-01-31 01:45:00,40.1,39.6,30.15,SSE,157,0.0,-999.0,98,-99.99,,,0.00,Acu-Link.com,2013-01-31 09:45:00,
2013-01-31 02:01:00,40.1,39.6,30.15,SW,225,0.0,-999.0,98,-99.99,,,0.00,Acu-Link.com,2013-01-31 10:01:00,
2013-01-31 02:16:00,40.1,39.6,30.15,SW,225,0.0,-999.0,98,-99.99,,,0.00,Acu-Link.com,2013-01-31 10:16:00,
2013-01-31 02:31:00,39.9,39.4,30.15,South,180,0.0,-999.0,98,-99.99,,,0.00,Acu-Link.com,2013-01-31 10:31:00,
2013-01-31 02:46:00,39.9,39.4,30.14,South,180,0.0,-999.0,98,-99.99,,,0.00,Acu-Link.com,2013-01-31 10:46:00,
2013-01-31 03:01:00,39.7,39.2,30.14,ENE,67,0.0,-999.0,98,-99.99,,,0.00,Acu-Link.com,2013-01-31 11:01:00,
2013-01-31 03:16:00,39.7,39.2,30.14,NW,315,0.0,-999.0,98,-99.99,,,0.00,Acu-Link.com,2013-01-31 11:16:00,
2013-01-31 03:31:00,39.6,39.1,30.13,South,180,0.0,-999.0,98,-99.99,,,0.00,Acu-Link.com,2013-01-31 11:31:00,
2013-01-31 03:46:00,39.6,39.1,30.13,NE,45,0.0,-999.0,98,-99.99,,,0.00,Acu-Link.com,2013-01-31 11:46:00,
2013-01-31 04:01:00,39.4,38.9,30.12,East,90,0.0,-999.0,98,-99.99,,,0.00,Acu-Link.com,2013-01-31 12:01:00,
2013-01-31 04:17:00,39.4,38.9,30.11,SE,135,2.2,-999.0,98,-99.99,,,0.00,Acu-Link.com,2013-01-31 12:17:00,
2013-01-31 04:32:00,39.4,38.9,30.11,SSE,157,1.7,-999.0,98,-99.99,,,0.00,Acu-Link.com,2013-01-31 12:32:00,
2013-01-31 04:47:00,39.4,38.9,30.11,SSE,157,0.0,-999.0,98,-99.99,,,0.00,Acu-Link.com,2013-01-31 12:47:00,
2013-01-31 05:02:00,39.4,38.9,30.11,WNW,292,0.0,-999.0,98,-99.99,,,0.00,Acu-Link.com,2013-01-31 13:02:00,
2013-01-31 05:17:00,39.4,38.9,30.11,WNW,292,0.0,-999.0,98,-99.99,,,0.00,Acu-Link.com,2013-01-31 13:17:00,
2013-01-31 05:32:00,39.4,38.9,30.11,West,270,0.0,-999.0,98,-99.99,,,0.00,Acu-Link.com,2013-01-31 13:32:00,
2013-01-31 05:47:00,39.2,38.7,30.10,NW,315,0.0,-999.0,98,-99.99,,,0.00,Acu-Link.com,2013-01-31 13:47:00,
2013-01-31 06:03:00,39.0,38.5,30.11,NNE,22,0.0,-999.0,98,-99.99,,,0.00,Acu-Link.com,2013-01-31 14:03:00,
2013-01-31 06:18:00,39.0,38.5,30.11,NE,45,0.0,-999.0,98,-99.99,,,0.00,Acu-Link.com,2013-01-31 14:18:00,
2013-01-31 06:33:00,38.8,38.3,30.11,NE,45,0.0,-999.0,98,-99.99,,,0.00,Acu-Link.com,2013-01-31 14:33:00,
2013-01-31 06:48:00,38.7,38.2,30.11,NE,45,0.0,-999.0,98,-99.99,,,0.00,Acu-Link.com,2013-01-31 14:48:00,
2013-01-31 07:03:00,38.5,38.0,30.11,NE,45,0.0,-999.0,98,-99.99,,,0.00,Acu-Link.com,2013-01-31 15:03:00,
2013-01-31 07:18:00,38.5,38.0,30.11,NE,45,0.0,-999.0,98,-99.99,,,0.00,Acu-Link.com,2013-01-31 15:18:00,
2013-01-31 07:33:00,38.5,38.0,30.10,NE,45,0.0,-999.0,98,-99.99,,,0.00,Acu-Link.com,2013-01-31 15:33:00,
2013-01-31 07:48:00,38.5,38.0,30.11,NE,45,0.0,-999.0,98,-99.99,,,0.00,Acu-Link.com,2013-01-31 15:48:00,
2013-01-31 08:04:00,38.5,38.0,30.11,NNW,337,0.0,-999.0,98,-99.99,,,0.00,Acu-Link.com,2013-01-31 16:04:00,
2013-01-31 08:19:00,38.5,38.0,30.11,NNE,22,0.0,-999.0,98,-99.99,,,0.00,Acu-Link.com,2013-01-31 16:19:00,
2013-01-31 08:34:00,38.5,38.0,30.11,NNE,22,0.0,-999.0,98,-99.99,,,0.00,Acu-Link.com,2013-01-31 16:34:00,
2013-01-31 08:49:00,38.7,38.2,30.12,NNW,337,0.0,-999.0,98,-99.99,,,0.00,Acu-Link.com,2013-01-31 16:49:00,
2013-01-31 09:04:00,38.8,38.3,30.12,SSE,157,0.0,-999.0,98,-99.99,,,0.00,Acu-Link.com,2013-01-31 17:04:00,
2013-01-31 09:19:00,39.0,38.5,30.12,NNE,22,0.0,-999.0,98,-99.99,,,0.00,Acu-Link.com,2013-01-31 17:19:00,
2013-01-31 09:34:00,39.0,38.5,30.12,NE,45,1.7,-999.0,98,-99.99,,,0.00,Acu-Link.com,2013-01-31 17:34:00,
2013-01-31 09:50:00,39.4,38.9,30.12,NE,45,1.7,-999.0,98,-99.99,,,0.00,Acu-Link.com,2013-01-31 17:50:00,
2013-01-31 10:05:00,39.4,38.9,30.12,ESE,112,0.0,-999.0,98,-99.99,,,0.00,Acu-Link.com,2013-01-31 18:05:00,
2013-01-31 10:20:00,39.9,39.4,30.12,WNW,292,0.0,-999.0,98,-99.99,,,0.00,Acu-Link.com,2013-01-31 18:20:00,
2013-01-31 10:35:00,40.3,39.5,30.12,North,0,0.0,-999.0,97,-99.99,,,0.00,Acu-Link.com,2013-01-31 18:35:00,
2013-01-31 10:50:00,40.8,39.5,30.12,NNE,22,0.0,-999.0,95,-99.99,,,0.00,Acu-Link.com,2013-01-31 18:50:00,
2013-01-31 11:05:00,41.2,39.9,30.12,NE,45,0.0,-999.0,95,-99.99,,,0.00,Acu-Link.com,2013-01-31 19:05:00,
2013-01-31 11:21:00,41.7,39.8,30.11,NNE,22,2.7,-999.0,93,-99.99,,,0.00,Acu-Link.com,2013-01-31 19:21:00,
2013-01-31 11:36:00,42.1,39.9,30.11,NNE,22,0.0,-999.0,92,-99.99,,,0.00,Acu-Link.com,2013-01-31 19:36:00,
2013-01-31 11:51:00,42.4,40.0,30.10,ESE,112,0.0,-999.0,91,-99.99,,,0.00,Acu-Link.com,2013-01-31 19:51:00,
2013-01-31 12:06:00,42.6,39.9,30.09,NNE,22,0.0,-999.0,90,-99.99,,,0.00,Acu-Link.com,2013-01-31 20:06:00,
2013-01-31 12:21:00,42.6,39.9,30.09,East,90,0.0,-999.0,90,-99.99,,,0.00,Acu-Link.com,2013-01-31 20:21:00,
2013-01-31 12:36:00,42.8,40.1,30.08,ENE,67,0.0,-999.0,90,-99.99,,,0.00,Acu-Link.com,2013-01-31 20:36:00,
2013-01-31 12:51:00,42.8,40.1,30.08,NNE,22,0.0,-999.0,90,-99.99,,,0.00,Acu-Link.com,2013-01-31 20:51:00,
2013-01-31 13:06:00,43.0,40.3,30.07,NNE,22,1.7,-999.0,90,-99.99,,,0.00,Acu-Link.com,2013-01-31 21:06:00,
2013-01-31 13:21:00,43.2,40.5,30.07,WNW,292,0.0,-999.0,90,-99.99,,,0.00,Acu-Link.com,2013-01-31 21:21:00,
2013-01-31 13:37:00,44.1,40.8,30.06,ESE,112,1.1,-999.0,88,-99.99,,,0.00,Acu-Link.com,2013-01-31 21:37:00,
2013-01-31 13:52:00,44.4,40.5,30.06,ESE,112,1.7,-999.0,86,-99.99,,,0.00,Acu-Link.com,2013-01-31 21:52:00,
2013-01-31 14:07:00,43.9,40.3,30.06,NE,45,1.7,-999.0,87,-99.99,,,0.00,Acu-Link.com,2013-01-31 22:07:00,
2013-01-31 14:22:00,43.9,40.6,30.06,ENE,67,0.0,-999.0,88,-99.99,,,0.00,Acu-Link.com,2013-01-31 22:22:00,
2013-01-31 14:37:00,43.3,40.3,30.06,ESE,112,0.0,-999.0,89,-99.99,,,0.00,Acu-Link.com,2013-01-31 22:37:00,
2013-01-31 14:52:00,43.5,40.2,30.05,East,90,0.0,-999.0,88,-99.99,,,0.00,Acu-Link.com,2013-01-31 22:52:00,
2013-01-31 15:07:00,43.7,40.4,30.06,SSW,202,0.0,-999.0,88,-99.99,,,0.00,Acu-Link.com,2013-01-31 23:07:00,
2013-01-31 15:22:00,43.7,40.7,30.06,NNE,22,0.0,-999.0,89,-99.99,,,0.00,Acu-Link.com,2013-01-31 23:22:00,
2013-01-31 15:38:00,43.7,40.7,30.06,East,90,1.7,-999.0,89,-99.99,,,0.00,Acu-Link.com,2013-01-31 23:38:00,
2013-01-31 15:53:00,43.3,40.6,30.05,SE,135,0.0,-999.0,90,-99.99,,,0.00,Acu-Link.com,2013-01-31 23:53:00,
2013-01-31 16:08:00,42.8,40.1,30.05,WNW,292,1.7,-999.0,90,-99.99,,,0.00,Acu-Link.com,2013-02-01 00:08:00,
2013-01-31 16:23:00,42.4,40.0,30.06,West,270,0.0,-999.0,91,-99.99,,,0.00,Acu-Link.com,2013-02-01 00:23:00,
2013-01-31 16:38:00,42.1,39.7,30.06,West,270,0.0,-999.0,91,-99.99,,,0.00,Acu-Link.com,2013-02-01 00:38:00,
2013-01-31 16:53:00,41.7,39.6,30.05,WSW,247,0.0,-999.0,92,-99.99,,,0.00,Acu-Link.com,2013-02-01 00:53:00,
2013-01-31 17:08:00,41.4,39.5,30.06,WNW,292,0.0,-999.0,93,-99.99,,,0.00,Acu-Link.com,2013-02-01 01:08:00,
2013-01-31 17:23:00,41.0,39.1,30.06,West,270,0.0,-999.0,93,-99.99,,,0.00,Acu-Link.com,2013-02-01 01:23:00,
2013-01-31 17:39:00,40.6,39.0,30.06,ESE,112,1.7,-999.0,94,-99.99,,,0.00,Acu-Link.com,2013-02-01 01:39:00,
2013-01-31 17:54:00,40.5,39.2,30.06,SE,135,2.2,-999.0,95,-99.99,,,0.00,Acu-Link.com,2013-02-01 01:54:00,
2013-01-31 18:09:00,40.3,39.0,30.06,SSW,202,0.0,-999.0,95,-99.99,,,0.00,Acu-Link.com,2013-02-01 02:09:00,
2013-01-31 18:24:00,40.3,39.3,30.06,ESE,112,0.0,-999.0,96,-99.99,,,0.00,Acu-Link.com,2013-02-01 02:24:00,
2013-01-31 18:39:00,40.1,39.3,30.06,ESE,112,0.0,-999.0,97,-99.99,,,0.00,Acu-Link.com,2013-02-01 02:39:00,
2013-01-31 18:54:00,40.1,39.6,30.06,North,0,0.0,-999.0,98,-99.99,,,0.00,Acu-Link.com,2013-02-01 02:54:00,
2013-01-31 19:10:00,39.9,39.4,30.06,East,90,1.1,-999.0,98,-99.99,,,0.00,Acu-Link.com,2013-02-01 03:10:00,
2013-01-31 19:25:00,39.9,39.4,30.06,ESE,112,0.0,-999.0,98,-99.99,,,0.00,Acu-Link.com,2013-02-01 03:25:00,
2013-01-31 19:40:00,39.7,39.2,30.06,SE,135,0.0,-999.0,98,-99.99,,,0.00,Acu-Link.com,2013-02-01 03:40:00,
2013-01-31 19:55:00,39.7,39.2,30.06,ESE,112,0.0,-999.0,98,-99.99,,,0.00,Acu-Link.com,2013-02-01 03:55:00,
2013-01-31 20:10:00,39.7,39.2,30.05,SE,135,0.0,-999.0,98,-99.99,,,0.00,Acu-Link.com,2013-02-01 04:10:00,
2013-01-31 20:25:00,39.7,39.2,30.06,SE,135,0.0,-999.0,98,-99.99,,,0.00,Acu-Link.com,2013-02-01 04:25:00,
2013-01-31 20:40:00,39.7,39.2,30.06,SSE,157,0.0,-999.0,98,-99.99,,,0.00,Acu-Link.com,2013-02-01 04:40:00,
2013-01-31 20:55:00,39.6,39.1,30.06,ESE,112,0.0,-999.0,98,-99.99,,,0.00,Acu-Link.com,2013-02-01 04:55:00,
2013-01-31 21:10:00,39.6,39.1,30.06,ESE,112,0.0,-999.0,98,-99.99,,,0.00,Acu-Link.com,2013-02-01 05:10:00,
2013-01-31 21:26:00,39.6,39.1,30.06,WSW,247,0.0,-999.0,98,-99.99,,,0.00,Acu-Link.com,2013-02-01 05:26:00,
2013-01-31 21:41:00,39.6,39.1,30.07,NE,45,0.0,-999.0,98,-99.99,,,0.00,Acu-Link.com,2013-02-01 05:41:00,
2013-01-31 21:56:00,39.4,38.9,30.07,West,270,0.0,-999.0,98,-99.99,,,0.00,Acu-Link.com,2013-02-01 05:56:00,
2013-01-31 22:11:00,39.4,38.9,30.07,ESE,112,0.0,-999.0,98,-99.99,,,0.00,Acu-Link.com,2013-02-01 06:11:00,
2013-01-31 22:27:00,39.4,38.9,30.07,NNE,22,0.0,-999.0,98,-99.99,,,0.00,Acu-Link.com,2013-02-01 06:27:00,
2013-01-31 22:42:00,39.2,38.7,30.07,SE,135,0.0,-999.0,98,-99.99,,,0.00,Acu-Link.com,2013-02-01 06:42:00,
2013-01-31 22:57:00,39.2,38.7,30.06,NNE,22,0.0,-999.0,98,-99.99,,,0.00,Acu-Link.com,2013-02-01 06:57:00,
2013-01-31 23:12:00,39.2,38.7,30.06,East,90,0.0,-999.0,98,-99.99,,,0.00,Acu-Link.com,2013-02-01 07:12:00,
2013-01-31 23:27:00,39.2,38.7,30.06,SSE,157,0.0,-999.0,98,-99.99,,,0.00,Acu-Link.com,2013-02-01 07:27:00,
2013-01-31 23:42:00,39.2,38.7,30.07,West,270,0.0,-999.0,98,-99.99,,,0.00,Acu-Link.com,2013-02-01 07:42:00,
2013-01-31 23:58:00,39.2,38.7,30.07,SE,135,1.1,-999.0,98,-99.99,,,0.00,Acu-Link.com,2013-02-01 07:58:00,